Location: City of Moscow
(46.7306°N, 116.9989°W)
Time: 03:23:56
(UTC+00:00)

Cosmos 1174 - Pass Details

Date: 11 December 2025
Orbit: 361 x 1048 km, 66.1° (Epoch: 13 January)

Event Time Altitude Azimuth Distance (km) Brightness Sun altitude
Exits shadow 14:46:35 - 324° (NW) 3,079 7.1 -6.2°
Reaches altitude 10° 14:48:11 10° 323° (NW) 2,469 6.6 -6.0°
Maximum altitude 14:53:51 79° 239° (WSW) 741 4.4 -5.1°
Drops below altitude 10° 14:58:24 10° 152° (SSE) 1,992 7.7 -4.4°
Sets 15:00:25 0° 151° (SSE) 2,789 8.6 -4.1°
